Bel Air, Maryland - USA


Today's Data File


5/10/26
Time         Wind Dir   Wind Spd  Wind Gust     Hum In   Humidity    Temp In       Temp  Raw Barom Wind Chill  Press Alt Cloud Base   Dens Alt Temp Out R  DailyRain   24HrRain   RainRate
                    �        mph        mph          %          %         �F         �F         in         �F         ft         ft         ft      �F/hr         in         in      in/hr
12:00am            60          0          0         40         94       74.0       53.2      29.28       53.2        598        419        375      -1.28       0.00       0.00      0.000
12:01am            60          0          0         40         94       73.8       53.2      29.28       53.2        597        419        374      -1.26       0.00       0.00      0.000
12:02am            60          0          0         40         94       73.8       53.2      29.28       53.2        597        419        374      -1.24       0.00       0.00      0.000
12:03am            60          0          0         40         95       73.8       53.2      29.28       53.2        597        348        374      -1.23       0.00       0.00      0.000
12:04am            60          0          0         40         95       73.8       53.2      29.28       53.2        597        348        374      -1.21       0.00       0.00      0.000
12:05am            60          0          0         40         95       73.8       53.2      29.28       53.2        597        348        374      -1.18       0.00       0.00      0.000
12:06am            60          0          0         40         95       73.8       53.2      29.28       53.2        597        348        374      -1.17       0.00       0.00      0.000
12:07am            60          0          0         40         95       73.8       53.2      29.28       53.2        598        348        375      -1.15       0.00       0.00      0.000
12:08am            60          0          0         40         95       73.8       53.2      29.28       53.2        599        348        376      -1.13       0.00       0.00      0.000
12:09am            60          0          0         40         95       73.8       53.1      29.28       53.1        600        348        371      -1.21       0.00       0.00      0.000
12:10am            60          0          0         40         95       73.8       53.1      29.27       53.1        602        348        373      -1.19       0.00       0.00      0.000
12:11am            60          0          0         40         95       73.8       53.1      29.27       53.1        602        348        373      -1.17       0.00       0.00      0.000
12:12am            60          0          0         40         95       73.8       53.1      29.27       53.1        603        348        374      -1.15       0.00       0.00      0.000
12:13am            60          0          0         40         95       73.8       53.0      29.27       53.0        603        348        367      -1.23       0.00       0.00      0.000
12:14am            60          0          0         40         95       73.8       53.0      29.27       53.0        604        348        369      -1.21       0.00       0.00      0.000
12:15am            60          0          0         40         95       73.8       53.0      29.27       53.0        605        348        370      -1.19       0.00       0.00      0.000
12:16am            60          0          0         40         94       73.8       53.0      29.27       53.0        606        419        371      -1.17       0.00       0.00      0.000
12:17am            60          0          0         40         95       73.8       53.0      29.27       53.0        605        348        370      -1.15       0.00       0.00      0.000
12:18am            60          0          0         40         95       73.8       53.0      29.27       53.0        605        348        370      -1.13       0.00       0.00      0.000
12:19am            60          0          0         40         95       73.8       53.0      29.27       53.0        605        348        370      -1.11       0.00       0.00      0.000
12:20am            60          0          0         40         95       73.8       52.9      29.27       52.9        602        347        360      -1.19       0.00       0.00      0.000
12:21am            60          0          0         40         95       73.8       52.9      29.28       52.9        600        347        357      -1.17       0.00       0.00      0.000
12:22am            60          0          0         40         95       73.8       52.9      29.28       52.9        601        347        359      -1.15       0.00       0.00      0.000
12:23am            60          0          0         40         95       73.8       52.9      29.28       52.9        601        347        359      -1.13       0.00       0.00      0.000
12:24am            60          0          0         40         95       73.8       52.9      29.28       52.9        600        347        357      -1.11       0.00       0.00      0.000
12:25am            60          0          0         40         95       73.8       52.8      29.28       52.8        600        347        351      -1.19       0.00       0.00      0.000
12:26am            60          0          0         40         95       73.8       52.8      29.28       52.8        599        347        350      -1.17       0.00       0.00      0.000
12:27am            60          0          0         40         95       73.8       52.8      29.28       52.8        599        347        350      -1.16       0.00       0.00      0.000
12:28am            60          0          0         40         95       73.8       52.8      29.28       52.8        598        347        348      -1.14       0.00       0.00      0.000
12:29am            60          0          0         40         95       73.8       52.7      29.28       52.7        599        347        343      -1.22       0.00       0.00      0.000
12:30am            60          0          0         40         95       73.8       52.7      29.28       52.7        598        347        342      -1.20       0.00       0.00      0.000
12:31am            60          0          0         40         95       73.8       52.7      29.28       52.7        598        347        342      -1.18       0.00       0.00      0.000
12:32am            60          0          0         40         95       73.8       52.7      29.28       52.7        599        347        343      -1.16       0.00       0.00      0.000
12:33am            60          0          0         40         95       73.8       52.6      29.28       52.6        598        347        335      -1.24       0.00       0.00      0.000
12:34am            60          0          0         40         95       73.8       52.6      29.28       52.6        598        347        335      -1.22       0.00       0.00      0.000
12:35am            60          0          0         40         95       73.8       52.6      29.28       52.6        599        347        336      -1.20       0.00       0.00      0.000
12:36am            60          0          0         40         95       73.8       52.6      29.28       52.6        598        347        335      -1.18       0.00       0.00      0.000
12:37am            60          0          0         40         95       73.8       52.6      29.28       52.6        598        347        335      -1.16       0.00       0.00      0.000
12:38am            60          0          0         40         95       73.8       52.6      29.28       52.6        598        347        335      -1.14       0.00       0.00      0.000
12:39am            60          0          0         40         95       73.8       52.5      29.28       52.5        599        347        330      -1.22       0.00       0.00      0.000
12:40am            60          0          0         40         95       73.8       52.5      29.28       52.5        599        347        330      -1.20       0.00       0.00      0.000
12:41am            60          0          0         40         95       73.8       52.5      29.28       52.5        597        347        327      -1.18       0.00       0.00      0.000
12:42am            60          0          0         40         95       73.8       52.5      29.28       52.5        597        347        327      -1.16       0.00       0.00      0.000
12:43am            60          0          0         40         95       73.8       52.4      29.28       52.4        598        347        322      -1.24       0.00       0.00      0.000
12:44am            60          0          0         40         95       73.8       52.4      29.28       52.4        598        347        322      -1.22       0.00       0.00      0.000
12:45am            60          0          0         40         95       73.8       52.4      29.28       52.4        598        347        322      -1.20       0.00       0.00      0.000
12:46am            60          0          0         40         95       73.8       52.4      29.28       52.4        599        347        323      -1.18       0.00       0.00      0.000
12:47am            60          0          0         40         95       73.8       52.3      29.28       52.3        600        347        317      -1.26       0.00       0.00      0.000
12:48am            60          0          0         40         95       73.8       52.3      29.28       52.3        601        347        319      -1.24       0.00       0.00      0.000
12:49am            60          0          0         40         95       73.8       52.3      29.27       52.3        602        347        320      -1.22       0.00       0.00      0.000
12:50am            60          0          0         40         95       73.8       52.3      29.27       52.3        602        347        320      -1.20       0.00       0.00      0.000
12:51am            60          0          0         40         95       73.8       52.3      29.27       52.3        602        347        320      -1.18       0.00       0.00      0.000
12:52am            60          0          0         40         95       73.8       52.3      29.27       52.3        602        347        320      -1.16       0.00       0.00      0.000
12:53am            60          0          0         40         95       73.8       52.3      29.27       52.3        603        347        321      -1.14       0.00       0.00      0.000
12:54am            60          0          0         40         95       73.8       52.3      29.27       52.3        603        347        321      -1.12       0.00       0.00      0.000
12:55am            60          0          0         40         96       73.8       52.3      29.27       52.3        603        276        321      -1.10       0.00       0.00      0.000
12:56am            60          0          0         40         96       73.8       52.3      29.27       52.3        603        276        321      -1.08       0.00       0.00      0.000
12:57am            60          0          0         40         96       73.8       52.4      29.27       52.4        603        276        328      -0.97       0.00       0.00      0.000
12:58am            60          0          0         40         96       73.8       52.4      29.27       52.4        603        276        328      -0.95       0.00       0.00      0.000
12:59am            60          0          0         40         95       73.8       52.4      29.27       52.4        603        347        328      -0.93       0.00       0.00      0.000
1:00am             60          0          0         40         96       73.8       52.3      29.27       52.3        602        276        320      -1.02       0.00       0.00      0.000
1:01am             60          0          0         40         96       73.8       52.4      29.27       52.4        602        276        326      -0.90       0.00       0.00      0.000
1:02am             60          0          0         40         95       73.8       52.4      29.27       52.4        602        347        326      -0.89       0.00       0.00      0.000
1:03am             60          0          0         40         95       73.8       52.4      29.27       52.4        602        347        326      -0.87       0.00       0.00      0.000
1:04am             60          0          0         40         95       73.8       52.4      29.28       52.4        601        347        325      -0.86       0.00       0.00      0.000
1:05am             60          0          0         40         96       73.8       52.4      29.27       52.4        602        276        326      -0.84       0.00       0.00      0.000
1:06am             60          0          0         40         96       73.8       52.3      29.28       52.3        601        276        319      -0.93       0.00       0.00      0.000
1:07am             60          0          0         40         96       73.8       52.4      29.28       52.4        601        276        325      -0.81       0.00       0.00      0.000
1:08am             60          0          0         40         96       73.8       52.4      29.27       52.4        602        276        326      -0.80       0.00       0.00      0.000
1:09am             60          0          0         40         96       73.8       52.3      29.27       52.3        603        276        321      -0.88       0.00       0.00      0.000
1:10am             60          0          0         40         96       74.0       52.4      29.27       52.4        604        276        329      -0.77       0.00       0.00      0.000
1:11am             60          0          0         40         96       74.0       52.4      29.27       52.4        604        276        329      -0.76       0.00       0.00      0.000
1:12am             60          0          0         40         96       74.0       52.5      29.27       52.5        605        276        337      -0.64       0.00       0.00      0.000
1:13am             60          0          0         40         96       73.8       52.5      29.27       52.5        605        276        337      -0.63       0.00       0.00      0.000
1:14am             60          0          0         40         96       73.8       52.5      29.27       52.5        606        276        338      -0.62       0.00       0.00      0.000
1:15am             60          0          0         40         96       73.8       52.6      29.27       52.6        607        276        345      -0.51       0.00       0.00      0.000
1:16am             60          0          0         40         96       73.8       52.6      29.27       52.6        607        276        345      -0.51       0.00       0.00      0.000
1:17am             60          0          0         40         96       73.8       52.6      29.27       52.6        607        276        345      -0.50       0.00       0.00      0.000
1:18am             60          0          0         40         96       73.8       52.7      29.27       52.7        607        276        352      -0.39       0.00       0.00      0.000
1:19am             60          0          0         40         96       73.8       52.6      29.27       52.6        608        276        347      -0.48       0.00       0.00      0.000
1:20am             60          0          0         40         96       73.8       52.6      29.27       52.6        608        276        347      -0.48       0.00       0.00      0.000
1:21am             60          0          0         40         96       73.8       52.6      29.27       52.6        609        276        348      -0.47       0.00       0.00      0.000
1:22am             60          0          0         40         96       73.8       52.6      29.27       52.6        609        276        349      -0.46       0.00       0.00      0.000
1:23am             60          0          0         40         95       73.8       52.6      29.27       52.6        609        347        348      -0.45       0.00       0.00      0.000
1:24am             60          0          0         40         95       73.8       52.6      29.27       52.6        609        347        349      -0.45       0.00       0.00      0.000
1:25am             60          0          0         40         95       73.8       52.6      29.27       52.6        609        347        349      -0.44       0.00       0.00      0.000
1:26am             60          0          0         40         95       73.8       52.5      29.27       52.5        609        347        342      -0.53       0.00       0.00      0.000
1:27am             60          0          0         40         95       73.8       52.5      29.27       52.5        609        347        342      -0.52       0.00       0.00      0.000
1:28am             60          0          0         40         95       73.8       52.5      29.27       52.5        609        347        342      -0.51       0.00       0.00      0.000
1:29am             60          0          0         40         95       73.8       52.4      29.27       52.4        609        347        336      -0.60       0.00       0.00      0.000
1:30am             60          0          0         40         95       73.8       52.4      29.27       52.4        609        347        336      -0.59       0.00       0.00      0.000
1:31am             60          0          0         40         95       73.8       52.4      29.27       52.4        609        347        336      -0.58       0.00       0.00      0.000
1:32am             60          0          0         40         95       73.8       52.3      29.27       52.3        609        347        329      -0.67       0.00       0.00      0.000
1:33am             60          0          0         40         95       73.8       52.3      29.27       52.3        609        347        329      -0.66       0.00       0.00      0.000
1:34am             60          0          0         40         95       73.8       52.3      29.27       52.3        609        347        329      -0.65       0.00       0.00      0.000
1:35am             60          0          0         40         95       73.8       52.3      29.27       52.3        609        347        329      -0.64       0.00       0.00      0.000
1:36am             60          0          0         40         96       73.8       52.2      29.27       52.2        609        276        322      -0.73       0.00       0.00      0.000
1:37am             60          0          0         40         96       73.8       52.2      29.27       52.2        609        276        322      -0.71       0.00       0.00      0.000
1:38am             60          0          0         40         96       74.0       52.2      29.27       52.2        609        276        322      -0.70       0.00       0.00      0.000
1:39am             60          0          0         40         96       74.0       52.1      29.27       52.1        609        276        316      -0.79       0.00       0.00      0.000
1:40am             60          0          0         40         96       74.0       52.1      29.27       52.1        609        276        316      -0.78       0.00       0.00      0.000
1:41am             60          0          0         40         96       74.0       52.1      29.27       52.1        610        276        317      -0.77       0.00       0.00      0.000
1:42am             60          0          0         40         96       74.0       52.1      29.27       52.1        609        276        316      -0.75       0.00       0.00      0.000
1:43am             60          0          0         40         95       74.0       52.1      29.27       52.1        609        346        316      -0.74       0.00       0.00      0.000
1:44am             60          0          0         40         95       74.0       52.0      29.27       52.0        610        346        310      -0.83       0.00       0.00      0.000
1:45am             60          0          0         40         95       74.0       52.0      29.27       52.0        609        346        309      -0.82       0.00       0.00      0.000
1:46am             60          0          0         40         95       74.0       52.0      29.27       52.0        609        346        309      -0.80       0.00       0.00      0.000
1:47am             60          0          0         40         96       73.8       52.0      29.27       52.0        609        275        309      -0.79       0.00       0.00      0.000
1:48am             60          0          0         40         96       73.8       52.0      29.27       52.0        609        275        309      -0.78       0.00       0.00      0.000
1:49am             60          0          0         40         96       73.8       52.0      29.27       52.0        609        275        309      -0.76       0.00       0.00      0.000
1:50am             60          0          0         40         95       73.8       51.9      29.27       51.9        609        346        301      -0.85       0.00       0.00      0.000
1:51am             60          0          0         40         95       73.8       51.9      29.27       51.9        609        346        302      -0.84       0.00       0.00      0.000
1:52am             60          0          0         40         95       73.8       51.9      29.27       51.9        609        346        302      -0.82       0.00       0.00      0.000
1:53am             60          0          0         40         95       73.8       51.8      29.27       51.8        609        346        296      -0.90       0.00       0.00      0.000
1:54am             60          0          0         40         95       73.8       51.9      29.27       51.9        609        346        302      -0.79       0.00       0.00      0.000
1:55am             60          0          0         40         95       74.0       51.8      29.27       51.8        609        346        296      -0.88       0.00       0.00      0.000
1:56am             60          0          0         40         96       74.0       51.8      29.27       51.8        609        275        296      -0.86       0.00       0.00      0.000
1:57am             60          0          0         40         96       74.0       51.7      29.27       51.7        609        275        289      -0.95       0.00       0.00      0.000
1:58am             60          0          0         40         96       74.0       51.7      29.27       51.7        609        275        289      -0.93       0.00       0.00      0.000
1:59am             60          0          0         40         96       74.0       51.7      29.27       51.7        609        275        289      -0.92       0.00       0.00      0.000
2:00am             60          0          0         40         96       74.0       51.7      29.27       51.7        609        275        289      -0.90       0.00       0.00      0.000
2:01am             60          0          0         40         96       74.0       51.6      29.27       51.6        609        275        282      -0.99       0.00       0.00      0.000
2:02am             60          0          0         40         96       74.0       51.6      29.27       51.6        609        275        282      -0.97       0.00       0.00      0.000
2:03am             60          0          0         40         96       74.0       51.6      29.27       51.6        609        275        282      -0.95       0.00       0.00      0.000
2:04am             60          0          0         40         96       74.0       51.6      29.27       51.6        609        275        282      -0.94       0.00       0.00      0.000
2:05am             60          0          0         40         96       74.0       51.5      29.27       51.5        609        275        276      -1.02       0.00       0.00      0.000
2:06am             60          0          0         40         96       74.0       51.6      29.27       51.6        610        275        283      -0.91       0.00       0.00      0.000
2:07am             60          0          0         40         96       74.0       51.5      29.27       51.5        609        275        276      -0.99       0.00       0.00      0.000
2:08am             60          0          0         40         96       74.0       51.5      29.27       51.5        609        275        276      -0.97       0.00       0.00      0.000
2:09am             60          0          0         40         96       74.0       51.5      29.27       51.5        609        275        276      -0.96       0.00       0.00      0.000
2:10am             60          0          0         40         96       74.0       51.5      29.27       51.5        609        275        276      -0.94       0.00       0.00      0.000
2:11am             60          0          0         40         96       74.0       51.4      29.27       51.4        609        275        269      -1.02       0.00       0.00      0.000
2:12am             60          0          0         40         96       74.0       51.4      29.27       51.4        610        275        270      -1.01       0.00       0.00      0.000
2:13am             60          0          0         40         96       74.0       51.4      29.27       51.4        610        275        270      -0.99       0.00       0.00      0.000
2:14am             60          0          0         40         96       74.0       51.4      29.27       51.4        610        275        270      -0.97       0.00       0.00      0.000
2:15am             60          0          0         40         96       74.0       51.3      29.26       51.3        611        275        265      -1.05       0.00       0.00      0.000
2:16am             60          0          0         40         96       74.0       51.3      29.26       51.3        612        275        266      -1.04       0.00       0.00      0.000
2:17am             60          0          0         40         96       74.0       51.2      29.26       51.2        612        275        259      -1.12       0.00       0.00      0.000
2:18am             60          0          0         40         96       74.0       51.2      29.26       51.2        612        275        259      -1.10       0.00       0.00      0.000
2:19am             60          0          0         40         96       74.0       51.2      29.26       51.2        612        275        259      -1.08       0.00       0.00      0.000
2:20am             60          0          0         40         96       74.0       51.2      29.26       51.2        614        275        261      -1.06       0.00       0.00      0.000
2:21am             60          0          0         40         96       74.0       51.1      29.26       51.1        614        274        255      -1.14       0.00       0.00      0.000
2:22am             60          0          0         40         96       74.0       51.1      29.26       51.1        614        274        255      -1.13       0.00       0.00      0.000
2:23am             60          0          0         40         96       74.0       51.1      29.26       51.1        616        274        257      -1.11       0.00       0.00      0.000
2:24am             60          0          0         40         96       74.0       51.1      29.26       51.1        617        274        258      -1.09       0.00       0.00      0.000
2:25am             60          0          0         40         96       74.0       51.1      29.26       51.1        617        274        258      -1.07       0.00       0.00      0.000
2:26am             60          0          0         40         96       74.0       51.0      29.26       51.0        617        274        251      -1.15       0.00       0.00      0.000
2:27am             60          0          0         40         96       74.0       51.1      29.26       51.1        617        274        258      -1.03       0.00       0.00      0.000
2:28am             60          0          0         40         96       74.0       51.0      29.26       51.0        617        274        251      -1.12       0.00       0.00      0.000
2:29am             60          0          0         40         96       74.0       51.1      29.26       51.1        617        274        258      -1.00       0.00       0.00      0.000
2:30am             60          0          0         40         96       74.0       51.0      29.26       51.0        616        274        250      -1.08       0.00       0.00      0.000
2:31am             60          0          0         40         96       74.0       51.0      29.26       51.0        617        274        251      -1.06       0.00       0.00      0.000
2:32am             60          0          0         40         96       74.0       51.1      29.26       51.1        617        274        258      -0.95       0.00       0.00      0.000
2:33am             60          0          0         40         96       74.0       51.1      29.26       51.1        616        274        257      -0.93       0.00       0.00      0.000
2:34am             60          0          0         40         96       74.0       51.0      29.26       51.0        617        274        251      -1.01       0.00       0.00      0.000
2:35am             60          0          0         40         96       74.0       51.0      29.26       51.0        617        274        251      -1.00       0.00       0.00      0.000
2:36am             60          0          0         40         96       74.0       51.0      29.26       51.0        617        274        251      -0.98       0.00       0.00      0.000
2:37am             60          0          0         40         96       74.0       51.0      29.26       51.0        616        274        250      -0.96       0.00       0.00      0.000
2:38am             60          0          0         40         96       74.0       51.0      29.26       51.0        615        274        249      -0.95       0.00       0.00      0.000
2:39am             60          0          0         40         96       74.0       50.9      29.26       50.9        615        274        242      -1.03       0.00       0.00      0.000
2:40am             60          0          0         40         96       74.0       50.9      29.26       50.9        615        274        242      -1.01       0.00       0.00      0.000
2:41am             60          0          0         40         96       74.0       50.9      29.26       50.9        613        274        240      -1.00       0.00       0.00      0.000
2:42am             60          0          0         40         96       74.0       50.9      29.26       50.9        613        274        240      -0.98       0.00       0.00      0.000
2:43am             60          0          0         40         96       74.0       50.8      29.26       50.8        611        274        231      -1.06       0.00       0.00      0.000
2:44am             60          0          0         40         96       74.0       50.8      29.27       50.8        610        274        230      -1.05       0.00       0.00      0.000
2:45am             60          0          0         40         96       74.0       50.9      29.27       50.9        610        274        237      -0.93       0.00       0.00      0.000
2:46am             60          0          0         40         96       74.0       50.8      29.27       50.8        610        274        230      -1.01       0.00       0.00      0.000
2:47am             60          0          0         40         96       74.0       50.8      29.27       50.8        609        274        229      -1.00       0.00       0.00      0.000
2:48am             60          0          0         40         96       74.0       50.8      29.27       50.8        609        274        229      -0.98       0.00       0.00      0.000
2:49am             60          0          0         40         96       74.0       50.7      29.27       50.7        609        274        222      -1.06       0.00       0.00      0.000
2:50am             60          0          0         40         96       74.0       50.7      29.27       50.7        609        274        222      -1.05       0.00       0.00      0.000
2:51am             60          0          0         40         96       74.0       50.7      29.27       50.7        609        274        221      -1.03       0.00       0.00      0.000
2:52am             60          0          0         40         96       74.0       50.7      29.27       50.7        609        274        221      -1.01       0.00       0.00      0.000
2:53am             60          0          0         40         96       74.0       50.7      29.27       50.7        609        274        221      -1.00       0.00       0.00      0.000
2:54am             60          0          0         40         96       74.0       50.7      29.27       50.7        609        274        221      -0.98       0.00       0.00      0.000
2:55am             60          0          0         40         96       74.0       50.7      29.27       50.7        609        274        221      -0.96       0.00       0.00      0.000
2:56am             60          0          0         40         96       74.0       50.7      29.27       50.7        608        274        220      -0.95       0.00       0.00      0.000
2:57am             60          0          0         40         96       74.0       50.6      29.27       50.6        608        274        213      -1.03       0.00       0.00      0.000
2:58am             60          0          0         40         97       74.0       50.7      29.27       50.7        607        204        219      -0.92       0.00       0.00      0.000
2:59am             60          0          0         40         97       74.0       50.6      29.27       50.6        606        204        211      -1.00       0.00       0.00      0.000
3:00am             60          0          0         40         97       74.2       50.7      29.27       50.7        606        204        218      -0.89       0.00       0.00      0.000
3:01am             60          0          0         40         97       74.2       50.7      29.27       50.7        607        204        219      -0.87       0.00       0.00      0.000
3:02am             60          0          0         40         97       74.2       50.6      29.27       50.6        607        204        212      -0.96       0.00       0.00      0.000
3:03am             60          0          0         40         97       74.2       50.7      29.27       50.7        608        204        220      -0.84       0.00       0.00      0.000
3:04am             60          0          0         40         97       74.2       50.6      29.27       50.6        608        204        213      -0.93       0.00       0.00      0.000
3:05am             60          0          0         40         97       74.2       50.7      29.27       50.7        608        204        220      -0.81       0.00       0.00      0.000
3:06am             60          0          0         40         97       74.2       50.7      29.27       50.7        608        204        220      -0.80       0.00       0.00      0.000
3:07am             60          0          0         40         97       74.2       50.7      29.27       50.7        607        204        219      -0.79       0.00       0.00      0.000
3:08am             60          0          0         40         97       74.2       50.7      29.27       50.7        607        204        219      -0.77       0.00       0.00      0.000
3:09am             60          0          0         40         97       74.2       50.7      29.27       50.7        607        204        219      -0.76       0.00       0.00      0.000
3:10am             60          0          0         40         97       74.2       50.7      29.27       50.7        607        204        219      -0.75       0.00       0.00      0.000
3:11am             60          0          0         40         97       74.2       50.7      29.27       50.7        607        204        219      -0.73       0.00       0.00      0.000
3:12am             60          0          0         40         97       74.2       50.7      29.27       50.7        608        204        220      -0.72       0.00       0.00      0.000
3:13am             60          0          0         40         97       74.2       50.7      29.27       50.7        608        204        220      -0.71       0.00       0.00      0.000
3:14am             60          0          0         40         97       74.2       50.7      29.27       50.7        607        204        219      -0.70       0.00       0.00      0.000
3:15am             60          0          0         40         97       74.2       50.7      29.27       50.7        607        204        219      -0.69       0.00       0.00      0.000
3:16am             60          0          0         40         97       74.2       50.7      29.27       50.7        607        204        219      -0.68       0.00       0.00      0.000
3:17am             60          0          0         40         97       74.2       50.6      29.27       50.6        606        204        211      -0.76       0.00       0.00      0.000
3:18am             60          0          0         40         97       74.2       50.7      29.27       50.7        606        204        218      -0.65       0.00       0.00      0.000
3:19am             60          0          0         40         97       74.2       50.7      29.27       50.7        605        204        216      -0.64       0.00       0.00      0.000
3:20am             60          0          0         40         97       74.2       50.6      29.27       50.6        606        204        211      -0.73       0.00       0.00      0.000
3:21am             60          0          0         40         97       74.2       50.6      29.27       50.6        606        204        211      -0.72       0.00       0.00      0.000
3:22am             60          0          0         40         97       74.2       50.6      29.27       50.6        606        204        211      -0.71       0.00       0.00      0.000
3:23am             60          0          0         40         97       74.2       50.6      29.27       50.6        605        204        210      -0.70       0.00       0.00      0.000
3:24am             60          0          0         40         97       74.2       50.6      29.27       50.6        605        204        210      -0.68       0.00       0.00      0.000
3:25am             60          0          0         40         97       74.2       50.7      29.27       50.7        605        204        216      -0.57       0.00       0.00      0.000
3:26am             60          0          0         40         97       74.2       50.7      29.27       50.7        605        204        216      -0.56       0.00       0.00      0.000
3:27am             60          0          0         40         97       74.2       50.7      29.27       50.7        605        204        216      -0.56       0.00       0.00      0.000
3:28am             60          0          0         40         97       74.2       50.6      29.27       50.6        605        204        210      -0.65       0.00       0.00      0.000
3:29am             60          0          0         40         97       74.2       50.6      29.27       50.6        604        204        209      -0.64       0.00       0.00      0.000
3:30am             60          0          0         40         97       74.2       50.6      29.27       50.6        603        204        208      -0.63       0.00       0.00      0.000
3:31am             60          0          0         40         97       74.2       50.6      29.27       50.6        602        204        206      -0.61       0.00       0.00      0.000
3:32am             60          0          0         40         97       74.2       50.6      29.28       50.6        600        204        204      -0.61       0.00       0.00      0.000
3:33am             60          0          0         40         97       74.2       50.5      29.28       50.5        600        204        197      -0.69       0.00       0.00      0.000
3:34am             60          0          0         40         97       74.2       50.6      29.28       50.6        599        204        203      -0.58       0.00       0.00      0.000
3:35am             60          0          0         40         97       74.2       50.6      29.28       50.6        600        204        204      -0.58       0.00       0.00      0.000
3:36am             57          0          0         40         97       74.2       50.5      29.28       50.5        599        204        196      -0.67       0.00       0.00      0.000
3:37am             57          0          0         40         97       74.2       50.6      29.28       50.6        599        204        203      -0.55       0.00       0.00      0.000
3:38am             71          0          1         40         97       74.2       50.6      29.28       50.6        599        204        203      -0.55       0.00       0.00      0.000
3:39am             71          1          2         40         97       74.2       50.5      29.28       50.5        599        204        196      -0.64       0.00       0.00      0.000
3:40am             71          0          2         40         97       74.2       50.6      29.28       50.6        599        204        203      -0.53       0.00       0.00      0.000
3:41am             71          2          2         40         97       74.2       50.5      29.28       50.5        599        204        196      -0.62       0.00       0.00      0.000
3:42am             71          1          3         40         97       74.2       50.6      29.28       50.6        598        204        202      -0.51       0.00       0.00      0.000
3:43am             71          0          3         40         97       74.2       50.6      29.28       50.6        598        204        202      -0.50       0.00       0.00      0.000
3:44am             71          0          3         40         97       74.2       50.6      29.28       50.6        598        204        202      -0.49       0.00       0.00      0.000
3:45am             71          1          3         40         97       74.2       50.6      29.28       50.6        597        204        201      -0.48       0.00       0.00      0.000
3:46am             71          1          2         40         97       74.2       50.7      29.28       50.7        596        204        206      -0.38       0.00       0.00      0.000
3:47am             71          2          2         40         97       74.2       50.8      29.28       50.8        596        204        212      -0.27       0.00       0.00      0.000
3:48am             71          1          2         40         97       74.2       50.8      29.28       50.8        595        204        211      -0.27       0.00       0.00      0.000
3:49am             71          0          2         42         97       74.2       50.8      29.28       50.8        595        204        211      -0.26       0.00       0.00      0.000
3:50am             71          0          2         40         97       74.2       50.8      29.28       50.8        595        204        211      -0.26       0.00       0.00      0.000
3:51am             71          0          1         40         97       74.2       50.8      29.28       50.8        595        204        211      -0.25       0.00       0.00      0.000
3:52am             71          0          1         40         97       74.2       50.8      29.28       50.8        595        204        211      -0.25       0.00       0.00      0.000
3:53am             71          0          1         40         97       74.2       50.8      29.28       50.8        595        204        211      -0.25       0.00       0.00      0.000
3:54am             71          0          1         40         97       74.2       50.8      29.28       50.8        595        204        211      -0.24       0.00       0.00      0.000
3:55am             71          0          1         40         97       74.2       50.9      29.28       50.9        595        205        217      -0.14       0.00       0.00      0.000
3:56am             71          1          2         40         97       74.2       50.9      29.28       50.9        595        205        217      -0.14       0.00       0.00      0.000
3:57am             71          1          2         40         97       74.2       50.9      29.28       50.9        595        205        217      -0.13       0.00       0.00      0.000
3:58am             71          2          2         40         97       74.2       50.9      29.28       50.9        594        205        216      -0.13       0.00       0.00      0.000
3:59am             29          3          3         40         97       74.2       50.9      29.29       50.7        589        205        210      -0.13       0.00       0.00      0.000
4:00am              2          4          5         40         97       74.2       50.9      29.30       49.9        580        205        199      -0.13       0.00       0.00      0.000
4:01am              2          1          4         40         97       74.2       50.9      29.30       50.9        580        205        199      -0.13       0.00       0.00      0.000
4:02am             22          4          4         40         97       74.2       50.8      29.30       49.8        581        204        193      -0.22       0.00       0.00      0.000
4:03am             77          2          4         40         97       74.2       50.8      29.29       50.8        590        204        205      -0.22       0.00       0.00      0.000
4:04am             79          0          4         40         97       74.2       50.8      29.29       50.8        590        204        205      -0.22       0.00       0.00      0.000
4:05am             79          2          4         40         97       74.2       50.7      29.29       50.7        591        204        199      -0.31       0.00       0.00      0.000
4:06am             31          5          5         40         97       74.2       50.7      29.30       49.0        583        204        189      -0.31       0.00       0.00      0.000
4:07am              9          4          5         40         97       74.2       50.6      29.30       49.6        579        204        178      -0.40       0.00       0.00      0.000
4:08am              9          1          5         40         97       74.3       50.6      29.30       50.6        576        204        174      -0.39       0.00       0.00      0.000
4:09am              9          0          5         40         97       74.2       50.5      29.30       50.5        579        204        171      -0.49       0.00       0.00      0.000
4:10am             12          1          5         40         97       74.3       50.5      29.30       50.5        582        204        174      -0.48       0.00       0.00      0.000
4:11am             12          2          2         40         97       74.3       50.5      29.30       50.5        581        204        173      -0.47       0.00       0.00      0.000
4:12am             12          2          4         40         97       74.3       50.4      29.30       50.4        580        204        166      -0.56       0.00       0.00      0.000
4:13am             12          2          4         40         97       74.3       50.3      29.30       50.3        576        204        154      -0.65       0.00       0.00      0.000
4:14am             12          2          4         40         97       74.3       50.3      29.30       50.3        577        204        155      -0.64       0.00       0.00      0.000
4:15am             83          2          4         40         97       74.3       50.2      29.30       50.2        580        204        152      -0.73       0.00       0.00      0.000
4:16am             83          0          2         40         97       74.3       50.2      29.30       50.2        582        204        154      -0.72       0.00       0.00      0.000
4:17am             81          2          2         40         97       74.3       50.1      29.29       50.1        584        204        150      -0.80       0.00       0.00      0.000
4:18am             81          2          3         40         97       74.3       50.1      29.30       50.1        581        204        147      -0.79       0.00       0.00      0.000
4:19am             81          2          3         40         97       74.2       50.1      29.30       50.1        580        204        145      -0.78       0.00       0.00      0.000
4:20am             81          0          3         40         97       74.2       50.1      29.30       50.1        580        204        145      -0.76       0.00       0.00      0.000
4:21am             81          2          3         40         97       74.3       50.1      29.30       50.1        581        204        147      -0.75       0.00       0.00      0.000
4:22am             81          0          3         40         97       74.3       50.0      29.30       50.0        581        204        140      -0.84       0.00       0.00      0.000
4:23am             81          2          3         40         97       74.3       50.0      29.30       50.0        580        204        139      -0.82       0.00       0.00      0.000
4:24am             81          2          3         40         97       74.3       50.0      29.30       50.0        579        204        138      -0.81       0.00       0.00      0.000
4:25am             81          0          3         40         97       74.3       50.0      29.30       50.0        579        204        138      -0.80       0.00       0.00      0.000
4:26am             81          0          2         40         97       74.3       49.9      29.30       49.9        581        204        133      -0.88       0.00       0.00      0.000
4:27am             81          1          2         40         97       74.3       50.0      29.30       50.0        581        204        140      -0.77       0.00       0.00      0.000
4:28am             81          0          2         40         97       74.3       50.0      29.30       50.0        582        204        141      -0.76       0.00       0.00      0.000
4:29am             81          2          2         40         97       74.3       50.0      29.30       50.0        581        204        140      -0.74       0.00       0.00      0.000
4:30am             81          1          2         40         97       74.3       50.0      29.30       50.0        580        204        139      -0.73       0.00       0.00      0.000
4:31am             81          0          2         40         97       74.3       49.9      29.30       49.9        580        204        132      -0.82       0.00       0.00      0.000
4:32am             81          0          2         40         97       74.3       50.0      29.30       50.0        580        204        139      -0.71       0.00       0.00      0.000
4:33am             81          0          2         40         97       74.3       49.9      29.30       49.9        581        204        133      -0.79       0.00       0.00      0.000
4:34am             81          0          2         40         97       74.3       50.0      29.30       50.0        581        204        140      -0.68       0.00       0.00      0.000
4:35am             81          0          2         40         97       74.3       50.0      29.30       50.0        580        204        139      -0.67       0.00       0.00      0.000
4:36am             81          2          2         40         97       74.3       49.9      29.30       49.9        580        204        132      -0.76       0.00       0.00      0.000
4:37am             81          1          2         40         97       74.3       49.9      29.30       49.9        579        204        131      -0.75       0.00       0.00      0.000
4:38am             81          0          2         40         97       74.3       49.9      29.30       49.9        579        204        131      -0.73       0.00       0.00      0.000
4:39am             81          0          2         40         97       74.3       50.0      29.30       50.0        579        204        138      -0.62       0.00       0.00      0.000
4:40am             81          0          2         40         97       74.3       49.9      29.30       49.9        579        204        131      -0.71       0.00       0.00      0.000
4:41am             81          0          0         40         97       74.3       49.9      29.30       49.9        580        204        132      -0.70       0.00       0.00      0.000
4:42am             81          0          1         40         97       74.3       49.9      29.30       49.9        580        204        132      -0.69       0.00       0.00      0.000
4:43am             81          2          2         40         97       74.3       49.9      29.30       49.9        579        204        131      -0.68       0.00       0.00      0.000
4:44am             81          0          2         40         97       74.3       49.9      29.30       49.9        580        204        132      -0.67       0.00       0.00      0.000
4:45am             81          0          2         40         97       74.3       49.8      29.30       49.8        580        204        125      -0.76       0.00       0.00      0.000
4:46am             81          0          0         40         97       74.3       49.9      29.30       49.9        581        204        133      -0.64       0.00       0.00      0.000
4:47am             81          2          2         40         97       74.3       49.9      29.30       49.9        582        204        134      -0.63       0.00       0.00      0.000
4:48am             81          0          2         40         97       74.3       49.8      29.30       49.8        581        204        126      -0.72       0.00       0.00      0.000
4:49am             81          0          2         40         97       74.3       49.8      29.30       49.8        581        204        126      -0.71       0.00       0.00      0.000
4:50am             81          0          2         40         97       74.3       49.8      29.30       49.8        581        204        126      -0.70       0.00       0.00      0.000
4:51am             81          1          1         40         97       74.3       49.8      29.30       49.8        581        204        126      -0.69       0.00       0.00      0.000
4:52am             81          1          2         40         97       74.3       49.8      29.30       49.8        581        204        126      -0.67       0.00       0.00      0.000
4:53am             81          1          2         40         97       74.3       49.8      29.30       49.8        580        204        125      -0.66       0.00       0.00      0.000
4:54am             81          1          2         40         97       74.3       49.8      29.30       49.8        580        204        125      -0.65       0.00       0.00      0.000
4:55am             81          1          2         40         97       74.3       49.8      29.30       49.8        580        204        125      -0.64       0.00       0.00      0.000
4:56am             81          0          1         40         97       74.3       49.9      29.30       49.9        580        204        132      -0.53       0.00       0.00      0.000
4:57am             81          0          1         40         97       74.3       49.8      29.30       49.8        580        204        125      -0.62       0.00       0.00      0.000
4:58am             81          0          1         40         97       74.3       49.8      29.30       49.8        581        204        126      -0.61       0.00       0.00      0.000
4:59am             81          1          1         40         97       74.3       49.8      29.30       49.8        581        204        126      -0.60       0.00       0.00      0.000
5:00am             81          0          1         40         97       74.3       49.8      29.30       49.8        581        204        126      -0.59       0.00       0.00      0.000
5:01am             81          0          0         40         97       74.3       49.8      29.30       49.8        581        204        126      -0.58       0.00       0.00      0.000
5:02am             81          0          1         40         97       74.3       49.8      29.30       49.8        581        204        126      -0.57       0.00       0.00      0.000
5:03am             81          1          1         40         97       74.3       49.8      29.30       49.8        582        204        128      -0.56       0.00       0.00      0.000
5:04am             81          0          1         40         97       74.3       49.9      29.30       49.9        582        204        134      -0.45       0.00       0.00      0.000
5:05am             81          2          2         40         97       74.3       49.8      29.30       49.8        583        204        129      -0.54       0.00       0.00      0.000
5:06am             81          1          2         40         97       74.3       49.9      29.30       49.9        583        204        135      -0.44       0.00       0.00      0.000
5:07am             81          0          2         40         97       74.3       49.8      29.30       49.8        582        204        128      -0.53       0.00       0.00      0.000
5:08am             81          0          2         40         97       74.3       49.8      29.30       49.8        582        204        128      -0.52       0.00       0.00      0.000
5:09am             81          0          2         40         97       74.3       49.8      29.30       49.8        582        204        128      -0.51       0.00       0.00      0.000
5:10am             81          0          2         40         97       74.3       49.8      29.30       49.8        582        204        128      -0.50       0.00       0.00      0.000
5:11am             81          0          0         40         97       74.3       49.8      29.30       49.8        582        204        128      -0.49       0.00       0.00      0.000
5:12am             81          0          0         40         97       74.3       49.8      29.30       49.8        581        204        126      -0.49       0.00       0.00      0.000
5:13am             81          0          0         40         97       74.3       49.8      29.30       49.8        581        204        126      -0.48       0.00       0.00      0.000
5:14am             81          0          0         40         97       74.3       49.7      29.30       49.7        581        204        120      -0.57       0.00       0.00      0.000
5:15am             81          0          0         40         97       74.3       49.7      29.30       49.7        581        204        120      -0.56       0.00       0.00      0.000
5:16am             81          0          0         40         97       74.3       49.7      29.30       49.7        581        204        120      -0.55       0.00       0.00      0.000
5:17am             81          0          0         40         97       74.3       49.7      29.30       49.7        581        204        120      -0.54       0.00       0.00      0.000
5:18am             81          0          0         40         97       74.3       49.7      29.30       49.7        581        204        120      -0.53       0.00       0.00      0.000
5:19am             81          0          0         40         97       74.3       49.7      29.30       49.7        581        204        120      -0.53       0.00       0.00      0.000
5:20am             81          0          0         40         97       74.3       49.7      29.30       49.7        581        204        120      -0.52       0.00       0.00      0.000
5:21am             81          0          0         40         97       74.3       49.7      29.30       49.7        581        204        120      -0.51       0.00       0.00      0.000
5:22am             81          0          0         40         97       74.3       49.6      29.30       49.6        581        203        113      -0.60       0.00       0.00      0.000
5:23am             81          0          0         40         97       74.3       49.6      29.30       49.6        581        203        113      -0.59       0.00       0.00      0.000
5:24am             81          0          0         40         97       74.3       49.6      29.30       49.6        581        203        113      -0.58       0.00       0.00      0.000
5:25am             81          0          0         40         97       74.3       49.6      29.30       49.6        581        203        113      -0.57       0.00       0.00      0.000
5:26am             81          0          0         40         97       74.3       49.6      29.30       49.6        581        203        113      -0.56       0.00       0.00      0.000
5:27am             81          0          0         40         97       74.3       49.7      29.30       49.7        581        204        120      -0.45       0.00       0.00      0.000
5:28am             81          0          0         40         97       74.3       49.6      29.30       49.6        581        203        113      -0.54       0.00       0.00      0.000
5:29am             81          0          0         40         97       74.3       49.6      29.30       49.6        581        203        113      -0.53       0.00       0.00      0.000
5:30am             81          0          0         42         97       74.3       49.6      29.30       49.6        582        203        114      -0.52       0.00       0.00      0.000
5:31am             81          0          0         40         97       74.3       49.6      29.30       49.6        582        203        114      -0.52       0.00       0.00      0.000
5:32am             81          0          0         40         97       74.3       49.6      29.29       49.6        584        203        117      -0.51       0.00       0.00      0.000
5:33am             81          0          0         40         97       74.3       49.6      29.29       49.6        584        203        117      -0.50       0.00       0.00      0.000
5:34am             81          0          0         40         97       74.3       49.6      29.29       49.6        584        203        118      -0.49       0.00       0.00      0.000
5:35am             81          0          0         40         97       74.3       49.6      29.29       49.6        584        203        118      -0.48       0.00       0.00      0.000
5:36am             81          0          0         40         97       74.3       49.6      29.29       49.6        584        203        117      -0.47       0.00       0.00      0.000
5:37am             81          0          0         40         97       74.3       49.5      29.30       49.5        582        203        108      -0.56       0.00       0.00      0.000
5:38am             81          0          0         40         97       74.3       49.5      29.30       49.5        582        203        108      -0.56       0.00       0.00      0.000
5:39am             81          0          0         40         97       74.3       49.5      29.30       49.5        581        203        106      -0.55       0.00       0.00      0.000
5:40am             81          0          0         40         97       74.3       49.5      29.30       49.5        580        203        105      -0.54       0.00       0.00      0.000
5:41am             81          0          0         40         97       74.3       49.5      29.30       49.5        580        203        105      -0.53       0.00       0.00      0.000
5:42am             81          0          0         40         97       74.3       49.5      29.30       49.5        579        203        104      -0.52       0.00       0.00      0.000
5:43am             81          0          0         40         97       74.3       49.5      29.30       49.5        579        203        104      -0.51       0.00       0.00      0.000
5:44am             81          0          0         40         97       74.3       49.5      29.30       49.5        579        203        104      -0.50       0.00       0.00      0.000
5:45am             81          0          0         40         97       74.3       49.5      29.30       49.5        579        203        104      -0.49       0.00       0.00      0.000
5:46am             81          0          0         40         97       74.3       49.4      29.30       49.4        578        203         96      -0.59       0.00       0.00      0.000
5:47am             81          0          0         40         97       74.3       49.4      29.30       49.4        578        203         96      -0.58       0.00       0.00      0.000
5:48am             81          0          0         40         97       74.3       49.4      29.30       49.4        578        203         96      -0.57       0.00       0.00      0.000
5:49am             81          0          0         40         97       74.3       49.4      29.30       49.4        577        203         95      -0.56       0.00       0.00      0.000
5:50am             81          0          0         40         97       74.3       49.4      29.30       49.4        578        203         96      -0.55       0.00       0.00      0.000
5:51am             81          0          0         40         97       74.3       49.4      29.30       49.4        578        203         96      -0.54       0.00       0.00      0.000
5:52am             81          0          0         40         97       74.3       49.3      29.30       49.3        579        203         91      -0.63       0.00       0.00      0.000
5:53am             81          0          0         40         97       74.3       49.3      29.30       49.3        578        203         90      -0.62       0.00       0.00      0.000
5:54am             81          0          0         40         97       74.3       49.3      29.30       49.3        579        203         91      -0.61       0.00       0.00      0.000
5:55am             81          0          0         40         97       74.3       49.3      29.30       49.3        579        203         91      -0.60       0.00       0.00      0.000
5:56am             81          0          0         40         97       74.3       49.2      29.30       49.2        579        203         84      -0.69       0.00       0.00      0.000
5:57am             81          0          0         40         97       74.3       49.3      29.30       49.3        579        203         91      -0.58       0.00       0.00      0.000
5:58am             81          0          0         40         97       74.3       49.2      29.30       49.2        578        203         83      -0.67       0.00       0.00      0.000
5:59am             81          0          0         40         97       74.3       49.2      29.30       49.2        575        203         79      -0.66       0.00       0.00      0.000
6:00am             81          0          0         40         97       74.3       49.2      29.30       49.2        575        203         79      -0.65       0.00       0.00      0.000
6:01am             81          0          0         40         97       74.3       49.2      29.31       49.2        572        203         76      -0.64       0.00       0.00      0.000
6:02am             81          0          0         40         97       74.3       49.2      29.31       49.2        571        203         74      -0.62       0.00       0.00      0.000
6:03am             81          0          0         40         97       74.3       49.1      29.31       49.1        569        203         65      -0.71       0.00       0.00      0.000
6:04am             81          0          0         40         98       74.3       49.2      29.31       49.2        568        135         70      -0.60       0.00       0.00      0.000
6:05am             81          0          0         40         98       74.3       49.2      29.31       49.2        567        135         69      -0.59       0.00       0.00      0.000
6:06am             81          0          0         40         98       74.3       49.2      29.31       49.2        567        135         69      -0.58       0.00       0.00      0.000
6:07am             81          0          0         40         98       74.3       49.3      29.31       49.3        567        135         76      -0.47       0.00       0.00      0.000
6:08am             81          0          0         40         98       74.5       49.3      29.31       49.3        568        135         77      -0.47       0.00       0.00      0.000
6:09am             81          0          0         40         97       74.3       49.2      29.31       49.2        567        203         69      -0.56       0.00       0.00      0.000
6:10am             81          0          0         40         97       74.3       49.3      29.31       49.3        566        203         75      -0.45       0.00       0.00      0.000
6:11am             81          0          0         40         97       74.3       49.2      29.31       49.2        566        203         68      -0.54       0.00       0.00      0.000
6:12am             81          0          0         40         98       74.3       49.2      29.31       49.2        566        135         68      -0.53       0.00       0.00      0.000
6:13am             81          0          0         40         97       74.3       49.2      29.31       49.2        566        203         68      -0.52       0.00       0.00      0.000
6:14am             81          0          0         40         97       74.3       49.2      29.31       49.2        565        203         67      -0.51       0.00       0.00      0.000
6:15am             81          0          0         40         97       74.3       49.2      29.31       49.2        566        203         68      -0.50       0.00       0.00      0.000
6:16am             81          0          0         40         97       74.3       49.2      29.31       49.2        566        203         68      -0.50       0.00       0.00      0.000
6:17am             81          0          0         40         98       74.3       49.2      29.31       49.2        566        135         68      -0.49       0.00       0.00      0.000
6:18am             81          0          0         40         97       74.3       49.1      29.31       49.1        566        203         61      -0.58       0.00       0.00      0.000
6:19am             81          0          0         40         97       74.3       49.1      29.31       49.1        566        203         61      -0.57       0.00       0.00      0.000
6:20am             81          0          0         40         98       74.3       49.2      29.31       49.2        566        135         68      -0.46       0.00       0.00      0.000
6:21am             81          0          0         40         98       74.3       49.2      29.31       49.2        565        135         67      -0.45       0.00       0.00      0.000
6:22am             81          0          0         40         98       74.3       49.2      29.31       49.2        565        135         67      -0.44       0.00       0.00      0.000
6:23am             81          0          0         40         98       74.3       49.2      29.31       49.2        565        135         67      -0.44       0.00       0.00      0.000
6:24am             81          0          0         40         98       74.3       49.3      29.31       49.3        565        135         74      -0.33       0.00       0.00      0.000
6:25am             81          0          0         40         98       74.3       49.3      29.32       49.3        564        135         72      -0.32       0.00       0.00      0.000
6:26am             81          0          0         40         98       74.3       49.4      29.32       49.4        564        135         79      -0.22       0.00       0.00      0.000
6:27am             81          0          0         40         98       74.3       49.5      29.31       49.5        565        135         87      -0.12       0.00       0.00      0.000
6:28am             81          1          1         40         98       74.3       49.5      29.31       49.5        565        135         87      -0.11       0.00       0.00      0.000
6:29am             81          0          1         40         98       74.3       49.6      29.31       49.6        565        135         94      -0.01       0.00       0.00      0.000
6:30am             81          0          1         40         98       74.3       49.7      29.31       49.7        565        135        100       0.09       0.00       0.00      0.000
6:31am             81          1          1         40         98       74.3       49.7      29.31       49.7        565        135        100       0.08       0.00       0.00      0.000
6:32am             81          1          1         40         98       74.3       49.8      29.32       49.8        564        135        106       0.18       0.00       0.00      0.000
6:33am             81          1          1         40         98       74.3       49.8      29.32       49.8        564        135        106       0.18       0.00       0.00      0.000
6:34am             81          1          2         40         98       74.3       49.9      29.32       49.9        563        135        111       0.28       0.00       0.00      0.000
6:35am             81          1          2         40         98       74.3       50.0      29.32       50.0        562        135        117       0.37       0.00       0.00      0.000
6:36am             81          0          2         40         98       74.3       49.9      29.32       49.9        561        135        109       0.27       0.00       0.00      0.000
6:37am             81          0          2         40         98       74.3       50.0      29.32       50.0        561        135        116       0.36       0.00       0.00      0.000
6:38am             81          0          2         40         98       74.3       50.1      29.32       50.1        560        135        121       0.45       0.00       0.00      0.000
6:39am             81          0          2         40         98       74.3       50.1      29.32       50.1        560        135        120       0.44       0.00       0.00      0.000
6:40am             81          0          2         40         98       74.3       50.1      29.32       50.1        560        135        120       0.44       0.00       0.00      0.000
6:41am             81          0          0         40         98       74.3       50.2      29.32       50.2        560        135        127       0.53       0.00       0.00      0.000
6:42am             81          1          2         40         98       74.3       50.2      29.32       50.2        555        135        121       0.52       0.00       0.00      0.000
6:43am             81          2          3         40         98       74.3       50.3      29.33       50.3        550        135        122       0.61       0.00       0.00      0.000
6:44am             81          2          3         40         98       74.3       50.3      29.33       50.3        550        135        122       0.60       0.00       0.00      0.000
6:45am             81          1          3         40         98       74.3       50.3      29.33       50.3        551        135        123       0.59       0.00       0.00      0.000
6:46am             81          0          2         40         98       74.3       50.3      29.33       50.3        551        135        123       0.58       0.00       0.00      0.000
6:47am             81          1          2         40         98       74.3       50.3      29.33       50.3        551        135        123       0.57       0.00       0.00      0.000
6:48am             81          1          2         40         98       74.3       50.4      29.33       50.4        551        135        130       0.66       0.00       0.00      0.000
6:49am             81          1          2         40         98       74.3       50.3      29.33       50.3        551        135        123       0.55       0.00       0.00      0.000
6:50am             73          3          3         40         98       74.3       50.4      29.33       50.1        550        135        129       0.64       0.00       0.00      0.000
6:51am             73          1          3         40         98       74.3       50.4      29.33       50.4        550        135        129       0.63       0.00       0.00      0.000
6:52am             73          2          3         40         98       74.3       50.4      29.33       50.4        550        135        129       0.62       0.00       0.00      0.000
6:53am             73          0          3         40         98       74.3       50.5      29.33       50.5        550        135        136       0.71       0.00       0.00      0.000
6:54am             73          1          3         40         98       74.3       50.5      29.33       50.5        550        135        136       0.70       0.00       0.00      0.000
6:55am             73          1          3         40         98       74.3       50.5      29.33       50.5        549        135        134       0.69       0.00       0.00      0.000
6:56am             73          2          2         40         98       74.3       50.6      29.33       50.6        549        135        141       0.77       0.00       0.00      0.000
6:57am             73          1          2         40         98       74.3       50.6      29.33       50.6        550        135        142       0.76       0.00       0.00      0.000
6:58am             73          0          2         40         98       74.3       50.6      29.33       50.6        549        135        141       0.75       0.00       0.00      0.000
6:59am             73          1          2         40         98       74.3       50.6      29.33       50.6        549        135        141       0.74       0.00       0.00      0.000
7:00am             73          1          2         40         98       74.3       50.7      29.33       50.7        549        135        148       0.82       0.00       0.00      0.000
7:01am             73          0          2         40         98       74.3       50.8      29.33       50.8        549        136        155       0.91       0.00       0.00      0.000
7:02am             73          1          2         40         98       74.3       50.8      29.33       50.8        550        136        156       0.89       0.00       0.00      0.000
7:03am             73          0          2         40         98       74.3       50.9      29.33       50.9        550        136        162       0.98       0.00       0.00      0.000
7:04am             73          0          2         40         98       74.3       51.0      29.33       51.0        550        136        169       1.06       0.00       0.00      0.000
7:05am             73          1          2         40         98       74.3       51.1      29.33       51.1        550        136        176       1.14       0.00       0.00      0.000
7:06am             73          0          1         40         98       74.3       51.2      29.33       51.2        550        136        182       1.22       0.00       0.00      0.000
7:07am             73          0          1         40         98       74.3       51.3      29.33       51.3        550        136        189       1.30       0.00       0.00      0.000
7:08am             73          0          1         40         99       74.3       51.4      29.33       51.4        550         67        196       1.38       0.00       0.00      0.000
7:09am             73          0          1         40         99       74.3       51.5      29.33       51.5        550         67        202       1.45       0.00       0.00      0.000
7:10am             73          0          1         40         99       74.3       51.7      29.33       51.7        549         67        215       1.63       0.00       0.00      0.000
7:11am             73          0          0         40         98       74.3       51.7      29.33       51.7        548        136        213       1.60       0.00       0.00      0.000
7:12am             73          0          0         40         98       74.3       51.8      29.33       51.8        548        136        220       1.67       0.00       0.00      0.000
7:13am             73          0          0         40         98       74.3       51.7      29.33       51.7        548        136        213       1.55       0.00       0.00      0.000
7:14am             75          0          1         40         98       74.3       51.8      29.33       51.8        548        136        219       1.62       0.00       0.00      0.000
7:15am             75          0          1         40         98       74.3       51.8      29.33       51.8        548        136        219       1.59       0.00       0.00      0.000
7:16am             75          0          0         40         98       74.3       51.9      29.33       51.9        548        136        226       1.67       0.00       0.00      0.000
7:17am             75          0          0         40         98       74.3       51.9      29.33       51.9        548        136        226       1.64       0.00       0.00      0.000
7:18am             75          1          2         40         98       74.3       52.0      29.33       52.0        548        136        232       1.71       0.00       0.00      0.000
7:19am             75          2          2         40         98       74.3       52.0      29.33       52.0        547        136        231       1.68       0.00       0.00      0.000
7:20am             75          0          2         40         98       74.3       52.0      29.33       52.0        547        136        231       1.66       0.00       0.00      0.000
7:21am             75          0          1         40         98       74.3       52.1      29.33       52.1        547        136        238       1.73       0.00       0.00      0.000
7:22am             75          0          1         40         98       74.3       52.3      29.33       52.3        547        136        251       1.89       0.00       0.00      0.000
7:23am             75          0          1         40         99       74.3       52.4      29.33       52.4        548         68        259       1.96       0.00       0.00      0.000
7:24am             75          0          1         40         99       74.3       52.6      29.33       52.6        548         68        273       2.13       0.00       0.00      0.000
7:25am             75          0          1         40         99       74.3       52.6      29.33       52.6        548         68        273       2.09       0.00       0.00      0.000
7:26am             75          0          0         40         99       74.3       52.7      29.33       52.7        548         68        279       2.16       0.00       0.00      0.000
7:27am             75          0          0         40         98       74.3       52.8      29.33       52.8        546        137        283       2.22       0.00       0.00      0.000
7:28am             75          0          0         40         98       74.3       52.7      29.34       52.7        544        137        274       2.09       0.00       0.00      0.000
7:29am             75          0          0         40         98       74.3       52.7      29.34       52.7        544        137        274       2.05       0.00       0.00      0.000
7:30am             75          0          0         40         98       74.3       52.7      29.34       52.7        543        137        273       2.02       0.00       0.00      0.000
7:31am             75          0          0         40         98       74.3       52.7      29.34       52.7        545        137        276       1.98       0.00       0.00      0.000
7:32am             75          0          0         40         98       74.3       52.7      29.33       52.7        547        137        278       1.95       0.00       0.00      0.000
7:33am             75          0          0         40         98       74.3       52.8      29.33       52.8        547        137        284       2.02       0.00       0.00      0.000
7:34am             75          0          0         40         98       74.3       52.9      29.33       52.9        547        137        291       2.08       0.00       0.00      0.000
7:35am             75          0          0         40         98       74.3       52.9      29.33       52.9        548        137        292       2.05       0.00       0.00      0.000
7:36am             75          0          0         40         98       74.3       53.0      29.33       53.0        549        137        301       2.11       0.00       0.00      0.000
7:37am             75          0          0         40         98       74.3       53.1      29.33       53.1        548        137        307       2.18       0.00       0.00      0.000
7:38am             74          0          2         40         98       74.3       53.2      29.33       53.2        547        137        311       2.24       0.00       0.00      0.000
7:39am             74          0          2         40         98       74.3       53.3      29.33       53.3        547        137        318       2.30       0.00       0.00      0.000
7:40am             74          0          2         40         98       74.3       53.3      29.33       53.3        546        137        317       2.27       0.00       0.00      0.000
7:41am             74          0          0         40         98       74.3       53.4      29.34       53.4        544        137        321       2.33       0.00       0.00      0.000
7:42am             74          0          0         40         98       74.3       53.4      29.34       53.4        542        137        319       2.29       0.00       0.00      0.000
7:43am             74          0          0         40         98       74.3       53.5      29.34       53.5        542        137        325       2.35       0.00       0.00      0.000
7:44am             74          0          0         40         98       74.3       53.5      29.34       53.5        541        137        324       2.31       0.00       0.00      0.000
7:45am             74          0          0         40         98       74.3       53.7      29.34       53.7        541        137        337       2.47       0.00       0.00      0.000
7:46am             74          0          0         40         98       74.3       53.8      29.34       53.8        539        137        342       2.53       0.00       0.00      0.000
7:47am             74          0          0         40         98       74.3       53.9      29.34       53.9        538        137        347       2.58       0.00       0.00      0.000
7:48am             74          0          0         42         98       74.3       54.0      29.34       54.0        537        137        353       2.64       0.00       0.00      0.000
7:49am             74          0          0         40         98       74.3       54.1      29.34       54.1        536        137        358       2.70       0.00       0.00      0.000
7:50am             74          0          0         40         98       74.3       54.2      29.34       54.2        536        137        365       2.75       0.00       0.00      0.000
7:51am             74          0          0         40         98       74.3       54.2      29.34       54.2        536        137        365       2.71       0.00       0.00      0.000
7:52am             74          0          0         40         98       74.3       54.2      29.34       54.2        536        137        365       2.66       0.00       0.00      0.000
7:53am             74          0          0         40         97       74.3       54.4      29.35       54.4        536        208        377       2.81       0.00       0.00      0.000
7:54am             74          0          0         40         97       74.3       54.4      29.35       54.4        536        208        377       2.77       0.00       0.00      0.000
7:55am             74          0          1         40         98       74.3       54.5      29.35       54.5        536        138        384       2.82       0.00       0.00      0.000
7:56am             74          0          1         40         98       74.3       54.7      29.35       54.7        536        138        397       2.97       0.00       0.00      0.000
7:57am             74          1          1         40         98       74.3       54.8      29.35       54.8        536        138        403       3.02       0.00       0.00      0.000
7:58am             74          0          2         40         98       74.3       55.0      29.35       55.0        536        138        417       3.17       0.00       0.00      0.000
7:59am             74          0          2         40         98       74.3       55.1      29.35       55.1        536        138        423       3.22       0.00       0.00      0.000
8:00am             74          0          2         40         98       74.3       55.3      29.35       55.3        534        138        434       3.36       0.00       0.00      0.000
8:01am             74          0          0         40         98       74.3       55.4      29.35       55.4        536        138        443       3.41       0.00       0.00      0.000
8:02am             74          0          0         40         97       74.3       55.6      29.35       55.6        535        209        455       3.55       0.00       0.00      0.000
8:03am             74          0          0         40         97       74.3       55.7      29.35       55.7        535        209        462       3.59       0.00       0.00      0.000
8:04am             74          0          0         40         97       74.3       55.9      29.35       55.9        535        209        475       3.73       0.00       0.00      0.000
8:05am             74          0          0         40         97       74.3       55.9      29.35       55.9        535        209        475       3.67       0.00       0.00      0.000
8:06am             74          0          0         40         96       74.3       56.0      29.35       56.0        535        280        482       3.71       0.00       0.00      0.000
8:07am             74          0          0         42         97       74.3       56.1      29.35       56.1        534        209        487       3.75       0.00       0.00      0.000
8:08am             74          0          0         40         96       74.3       56.2      29.35       56.2        534        280        494       3.78       0.00       0.00      0.000
8:09am             74          0          0         40         96       74.3       56.3      29.35       56.3        533        281        499       3.82       0.00       0.00      0.000
8:10am             75          0          0         40         96       74.3       56.5      29.35       56.5        534        281        514       3.95       0.00       0.00      0.000
8:11am             74          0          0         40         96       74.3       56.6      29.35       56.6        534        281        520       3.99       0.00       0.00      0.000
8:12am             74          0          0         40         96       74.3       56.7      29.35       56.7        536        281        529       4.02       0.00       0.00      0.000
8:13am             75          0          0         40         95       74.3       56.8      29.35       56.8        536        353        536       4.05       0.00       0.00      0.000
8:14am             75          0          0         40         95       74.3       57.0      29.35       57.0        536        354        549       4.18       0.00       0.00      0.000
8:15am             75          0          0         40         95       74.3       57.1      29.35       57.1        536        354        555       4.22       0.00       0.00      0.000
8:16am             75          0          0         40         95       74.3       57.2      29.35       57.2        536        354        562       4.24       0.00       0.00      0.000
8:17am             75          0          0         40         94       74.3       57.3      29.35       57.3        536        427        569       4.27       0.00       0.00      0.000
8:18am             75          0          0         40         94       74.3       57.4      29.35       57.4        536        427        575       4.30       0.00       0.00      0.000
8:19am             74          0          0         40         94       74.3       57.5      29.35       57.5        535        427        581       4.33       0.00       0.00      0.000
8:20am             75          0          0         40         94       74.3       57.5      29.35       57.5        534        427        579       4.26       0.00       0.00      0.000
8:21am             75          0          0         40         94       74.3       57.7      29.35       57.7        533        428        591       4.39       0.00       0.00      0.000
8:22am             75          0          0         40         94       74.3       57.7      29.35       57.7        532        428        590       4.32       0.00       0.00      0.000
8:23am             75          0          0         40         94       74.3       57.8      29.35       57.8        532        428        597       4.34       0.00       0.00      0.000
8:24am             75          0          0         40         94       74.3       57.9      29.35       57.9        532        428        603       4.37       0.00       0.00      0.000
8:25am             75          0          0         40         93       74.3       57.9      29.35       57.9        530        502        601       4.30       0.00       0.00      0.000
8:26am             75          0          0         40         93       74.3       58.0      29.35       58.0        529        502        607       4.33       0.00       0.00      0.000
8:27am             79          1          2         40         93       74.3       58.0      29.35       58.0        528        502        605       4.25       0.00       0.00      0.000
8:28am             79          0          2         40         93       74.3       58.0      29.35       58.0        527        502        604       4.19       0.00       0.00      0.000
8:29am             79          1          2         40         93       74.3       58.1      29.35       58.1        527        502        611       4.21       0.00       0.00      0.000
8:30am             79          2          2         40         93       74.3       58.2      29.36       58.2        526        503        616       4.24       0.00       0.00      0.000
8:31am             79          0          3         40         92       74.3       58.3      29.36       58.3        525        577        622       4.27       0.00       0.00      0.000
8:32am             79          0          3         40         92       74.3       58.4      29.36       58.4        524        578        627       4.30       0.00       0.00      0.000
8:33am             79          0          3         40         92       74.3       58.5      29.36       58.5        524        578        634       4.33       0.00       0.00      0.000
8:34am             79          0          3         40         92       74.5       58.6      29.36       58.6        524        578        639       4.36       0.00       0.00      0.000
8:35am             79          0          3         40         92       74.5       58.7      29.36       58.7        524        578        646       4.38       0.00       0.00      0.000
8:36am             79          0          0         40         92       74.5       58.9      29.36       58.9        524        579        660       4.51       0.00       0.00      0.000
8:37am             79          0          2         40         92       74.5       59.0      29.36       59.0        524        579        665       4.53       0.00       0.00      0.000
8:38am             79          0          2         40         91       74.5       59.2      29.36       59.2        524        655        680       4.66       0.00       0.00      0.000
8:39am             79          2          2         40         91       74.5       59.3      29.36       59.3        524        656        686       4.68       0.00       0.00      0.000
8:40am             79          2          3         40         91       74.5       59.4      29.36       59.4        524        656        692       4.70       0.00       0.00      0.000
8:41am             79          1          2         40         90       74.5       59.5      29.36       59.5        524        733        699       4.72       0.00       0.00      0.000
8:42am             79          0          2         40         90       74.5       59.6      29.36       59.6        525        733        707       4.75       0.00       0.00      0.000
8:43am             79          1          2         40         90       74.5       59.7      29.36       59.7        525        733        714       4.76       0.00       0.00      0.000
8:44am             79          1          3         40         90       74.5       59.8      29.35       59.8        528        733        723       4.79       0.00       0.00      0.000

Data provided from:  Mark Hofmann's Bel Air, MD Weather Station